Location: Unspecified
(0.0000°N, 0.0000°E)
Time: 04:39:26
(UTC+00:00)

DMSP 5D-2 F13 DEB - Pass Details

Date: 20 February 2026
Orbit: 782 x 824 km, 98.9° (Epoch: 8 March)

Event Time Altitude Azimuth Distance (km) Brightness Sun altitude
Rises 19:17:06 0° 168° (SSE) 3,274 ? -15.6°
Reaches altitude 10° 19:19:26 10° 167° (SSE) 2,340 ? -16.1°
Maximum altitude 19:24:36 90° 252° (WSW) 785 ? -17.4°
Drops below altitude 10° 19:29:44 10° 347° (NNW) 2,328 ? -18.7°
Sets 19:32:02 0° 347° (NNW) 3,255 ? -19.2°
